Year,Month,Day,Hour,Minute,Value (Times are PST for temperature in C)
2010,06,18,00,00,11.20
2010,06,18,00,01,11.10
2010,06,18,00,02,11.10
2010,06,18,00,03,11.10
2010,06,18,00,04,11.10
2010,06,18,00,05,11.10
2010,06,18,00,06,11.10
2010,06,18,00,07,11.10
2010,06,18,00,08,11.10
2010,06,18,00,09,11.00
2010,06,18,00,10,10.90
2010,06,18,00,11,10.90
2010,06,18,00,12,10.90
2010,06,18,00,13,10.90
2010,06,18,00,14,10.90
2010,06,18,00,15,10.90
2010,06,18,00,16,10.90
2010,06,18,00,17,10.90
2010,06,18,00,18,10.90
2010,06,18,00,19,10.90
2010,06,18,00,20,10.90
2010,06,18,00,21,10.90
2010,06,18,00,22,10.90
2010,06,18,00,23,10.90
2010,06,18,00,24,10.90
2010,06,18,00,25,10.90
2010,06,18,00,26,10.90
2010,06,18,00,27,10.90
2010,06,18,00,28,10.90
2010,06,18,00,29,10.90
2010,06,18,00,30,10.90
2010,06,18,00,31,10.90
2010,06,18,00,32,10.90
2010,06,18,00,33,10.90
2010,06,18,00,34,10.90
2010,06,18,00,35,10.90
2010,06,18,00,36,10.90
2010,06,18,00,37,10.90
2010,06,18,00,38,11.00
2010,06,18,00,39,11.10
2010,06,18,00,40,11.10
2010,06,18,00,41,11.10
2010,06,18,00,42,11.10
2010,06,18,00,43,11.10
2010,06,18,00,44,11.10
2010,06,18,00,45,11.10
2010,06,18,00,46,11.10
2010,06,18,00,47,11.20
2010,06,18,00,48,11.20
2010,06,18,00,49,11.20
2010,06,18,00,50,11.20
2010,06,18,00,51,11.20
2010,06,18,00,52,11.20
2010,06,18,00,53,11.20
2010,06,18,00,54,11.20
2010,06,18,00,55,11.20
2010,06,18,00,56,11.20
2010,06,18,00,57,11.20
2010,06,18,00,58,11.30
2010,06,18,00,59,11.30
2010,06,18,01,00,11.30
2010,06,18,01,01,11.30
2010,06,18,02,00,10.70
2010,06,18,02,01,10.70
2010,06,18,03,00,9.90
2010,06,18,03,01,9.90
2010,06,18,04,00,9.60
2010,06,18,04,01,9.60
2010,06,18,05,00,8.70
2010,06,18,05,01,8.70
2010,06,18,06,00,9.20
2010,06,18,06,01,9.20
2010,06,18,06,17,9.50
2010,06,18,06,18,9.50
2010,06,18,06,19,9.50
2010,06,18,06,20,9.60
2010,06,18,06,21,9.60
2010,06,18,06,22,9.60
2010,06,18,06,23,9.60
2010,06,18,06,24,9.60
2010,06,18,06,25,9.60
2010,06,18,06,26,9.60
2010,06,18,06,27,9.60
2010,06,18,06,28,9.60
2010,06,18,06,29,9.60
2010,06,18,06,30,9.60
2010,06,18,06,31,9.60
2010,06,18,06,32,9.70
2010,06,18,06,33,9.70
2010,06,18,06,34,9.70
2010,06,18,06,35,9.70
2010,06,18,06,36,9.70
2010,06,18,06,37,9.70
2010,06,18,06,38,9.70
2010,06,18,06,39,9.70
2010,06,18,06,40,9.80
2010,06,18,06,41,9.80
2010,06,18,06,42,9.80
2010,06,18,06,43,9.90
2010,06,18,06,44,9.90
2010,06,18,06,45,9.90
2010,06,18,06,46,9.90
2010,06,18,06,47,9.90
2010,06,18,06,48,9.90
2010,06,18,06,49,9.90
2010,06,18,06,50,10.00
2010,06,18,06,51,10.10
2010,06,18,06,52,10.10
2010,06,18,06,53,10.10
2010,06,18,06,54,10.10
2010,06,18,06,55,10.10
2010,06,18,06,56,10.10
2010,06,18,06,57,10.20
2010,06,18,06,58,10.20
2010,06,18,06,59,10.30
2010,06,18,07,00,10.30
2010,06,18,07,01,10.30
2010,06,18,07,02,10.40
2010,06,18,07,03,10.40
2010,06,18,07,04,10.40
2010,06,18,07,05,10.40
2010,06,18,07,06,10.50
2010,06,18,07,07,10.60
2010,06,18,07,08,10.60
2010,06,18,07,09,10.60
2010,06,18,07,10,10.60
2010,06,18,07,11,10.60
2010,06,18,07,12,10.70
2010,06,18,07,13,10.70
2010,06,18,07,14,10.70
2010,06,18,07,15,10.80
2010,06,18,07,16,10.80
2010,06,18,07,17,10.80
2010,06,18,07,18,10.80
2010,06,18,07,19,10.90
2010,06,18,07,20,10.90
2010,06,18,07,21,10.90
2010,06,18,07,22,10.90
2010,06,18,07,23,10.90
2010,06,18,07,24,11.00
2010,06,18,07,25,11.10
2010,06,18,07,26,11.10
2010,06,18,07,27,11.10
2010,06,18,07,28,11.10
2010,06,18,07,29,11.20
2010,06,18,07,30,11.20
2010,06,18,07,31,11.30
2010,06,18,07,32,11.30
2010,06,18,07,33,11.30
2010,06,18,07,34,11.30
2010,06,18,07,35,11.40
2010,06,18,07,36,11.40
2010,06,18,07,37,11.40
2010,06,18,07,38,11.40
2010,06,18,07,39,11.40
2010,06,18,07,40,11.40
2010,06,18,07,41,11.50
2010,06,18,07,42,11.60
2010,06,18,07,43,11.60
2010,06,18,07,44,11.60
2010,06,18,07,45,11.60
2010,06,18,07,46,11.70
2010,06,18,07,47,11.70
2010,06,18,07,48,11.80
2010,06,18,07,49,11.80
2010,06,18,07,50,11.80
2010,06,18,07,51,11.80
2010,06,18,07,52,11.90
2010,06,18,07,53,11.90
2010,06,18,07,54,12.00
2010,06,18,07,55,12.00
2010,06,18,07,56,12.10
2010,06,18,07,57,12.20
2010,06,18,07,58,12.20
2010,06,18,07,59,12.30
2010,06,18,08,00,12.30
2010,06,18,08,01,12.30
2010,06,18,08,02,12.40
2010,06,18,08,03,12.40
2010,06,18,08,04,12.50
2010,06,18,08,05,12.50
2010,06,18,08,06,12.60
2010,06,18,08,07,12.60
2010,06,18,08,08,12.60
2010,06,18,08,09,12.60
2010,06,18,08,10,12.60
2010,06,18,08,11,12.70
2010,06,18,08,12,12.70
2010,06,18,08,13,12.70
2010,06,18,08,14,12.80
2010,06,18,08,58,13.60
2010,06,18,08,59,13.70
2010,06,18,09,00,13.70
2010,06,18,09,01,13.70
2010,06,18,09,02,13.70
2010,06,18,09,03,13.70
2010,06,18,09,04,13.80
2010,06,18,09,05,13.80
2010,06,18,09,06,13.80
2010,06,18,09,07,13.80
2010,06,18,09,08,13.90
2010,06,18,09,09,13.90
2010,06,18,09,10,14.00
2010,06,18,09,11,14.10
2010,06,18,09,12,14.10
2010,06,18,09,13,14.20
2010,06,18,09,14,14.10
2010,06,18,09,15,14.20
2010,06,18,09,16,14.20
2010,06,18,09,17,14.20
2010,06,18,09,18,14.20
2010,06,18,09,19,14.20
2010,06,18,09,20,14.20
2010,06,18,09,21,14.20
2010,06,18,09,22,14.20
2010,06,18,09,23,14.20
2010,06,18,09,24,14.20
2010,06,18,09,25,14.20
2010,06,18,09,26,14.20
2010,06,18,09,27,14.20
2010,06,18,09,28,14.20
2010,06,18,09,29,14.20
2010,06,18,09,30,14.20
2010,06,18,09,31,14.20
2010,06,18,09,32,14.30
2010,06,18,09,33,14.30
2010,06,18,09,34,14.40
2010,06,18,09,35,14.40
2010,06,18,09,36,14.50
2010,06,18,09,37,14.50
2010,06,18,09,38,14.60
2010,06,18,09,39,14.60
2010,06,18,09,40,14.60
2010,06,18,09,41,14.70
2010,06,18,09,42,14.70
2010,06,18,09,43,14.70
2010,06,18,09,44,14.70
2010,06,18,09,45,14.80
2010,06,18,09,46,14.80
2010,06,18,09,47,14.80
2010,06,18,09,48,14.80
2010,06,18,09,49,14.80
2010,06,18,09,50,14.80
2010,06,18,09,51,14.90
2010,06,18,09,52,14.90
2010,06,18,09,53,15.00
2010,06,18,09,54,15.00
2010,06,18,09,55,15.00
2010,06,18,09,56,15.10
2010,06,18,09,57,15.10
2010,06,18,09,58,15.10
2010,06,18,09,59,15.10
2010,06,18,10,00,15.10
2010,06,18,10,01,15.00
2010,06,18,10,02,15.00
2010,06,18,10,03,15.00
2010,06,18,10,04,15.00
2010,06,18,10,05,15.10
2010,06,18,10,06,15.10
2010,06,18,10,07,15.20
2010,06,18,10,08,15.20
2010,06,18,10,09,15.30
2010,06,18,10,10,15.30
2010,06,18,10,11,15.40
2010,06,18,10,12,15.40
2010,06,18,10,13,15.40
2010,06,18,10,14,15.40
2010,06,18,10,15,15.50
2010,06,18,10,16,15.50
2010,06,18,10,17,15.60
2010,06,18,10,18,15.70
2010,06,18,10,19,15.80
2010,06,18,10,20,15.80
2010,06,18,10,21,15.90
2010,06,18,10,22,16.00
2010,06,18,10,23,16.10
2010,06,18,10,24,16.20
2010,06,18,10,25,16.20
2010,06,18,10,26,16.20
2010,06,18,10,27,16.30
2010,06,18,10,28,16.30
2010,06,18,10,29,16.40
2010,06,18,10,30,16.40
2010,06,18,10,31,16.40
2010,06,18,10,32,16.30
2010,06,18,10,33,16.20
2010,06,18,10,34,16.20
2010,06,18,10,35,16.10
2010,06,18,10,36,16.10
2010,06,18,10,37,16.10
2010,06,18,10,38,16.20
2010,06,18,10,39,16.30
2010,06,18,10,40,16.40
2010,06,18,10,41,16.40
2010,06,18,10,42,16.40
2010,06,18,10,43,16.40
2010,06,18,10,44,16.40
2010,06,18,10,45,16.40
2010,06,18,10,46,16.40
2010,06,18,10,47,16.40
2010,06,18,10,48,16.40
2010,06,18,10,49,16.40
2010,06,18,10,50,16.50
2010,06,18,10,51,16.60
2010,06,18,10,52,16.70
2010,06,18,10,53,16.80
2010,06,18,10,54,16.90
2010,06,18,10,55,17.10
2010,06,18,10,56,17.20
2010,06,18,10,57,17.30
2010,06,18,10,58,17.50
2010,06,18,10,59,17.60
2010,06,18,11,00,17.60
2010,06,18,11,01,17.70
2010,06,18,11,02,17.70
2010,06,18,11,03,17.70
2010,06,18,11,04,17.70
2010,06,18,11,05,17.80
2010,06,18,11,06,17.70
2010,06,18,11,07,17.60
2010,06,18,11,08,17.70
2010,06,18,11,09,17.70
2010,06,18,11,10,17.80
2010,06,18,11,11,17.80
2010,06,18,11,12,17.90
2010,06,18,11,13,18.10
2010,06,18,11,14,18.20
2010,06,18,11,15,18.40
2010,06,18,11,16,18.60
2010,06,18,11,17,18.60
2010,06,18,11,18,18.60
2010,06,18,11,19,18.60
2010,06,18,11,20,18.50
2010,06,18,11,21,18.50
2010,06,18,11,22,18.50
2010,06,18,11,23,18.50
2010,06,18,11,24,18.50
2010,06,18,11,25,18.50
2010,06,18,11,26,18.50
2010,06,18,11,27,18.60
2010,06,18,11,28,18.70
2010,06,18,11,29,18.80
2010,06,18,11,30,18.90
2010,06,18,11,31,19.00
2010,06,18,11,32,19.10
2010,06,18,11,33,19.10
2010,06,18,11,34,19.20
2010,06,18,11,35,19.20
2010,06,18,11,36,19.20
2010,06,18,11,37,19.30
2010,06,18,11,38,19.30
2010,06,18,11,39,19.40
2010,06,18,11,40,19.40
2010,06,18,11,41,19.60
2010,06,18,11,42,19.60
2010,06,18,11,43,19.60
2010,06,18,11,44,19.60
2010,06,18,11,45,19.50
2010,06,18,11,46,19.40
2010,06,18,11,47,19.40
2010,06,18,11,48,19.30
2010,06,18,11,49,19.10
2010,06,18,11,50,18.90
2010,06,18,11,51,18.70
2010,06,18,11,52,18.60
2010,06,18,11,53,18.60
2010,06,18,11,54,18.60
2010,06,18,11,55,18.70
2010,06,18,11,56,18.70
2010,06,18,11,57,18.80
2010,06,18,11,58,18.80
2010,06,18,11,59,18.80
2010,06,18,12,00,18.90
2010,06,18,12,01,18.90
2010,06,18,12,02,19.10
2010,06,18,12,03,19.10
2010,06,18,12,04,19.20
2010,06,18,12,05,19.20
2010,06,18,12,06,19.20
2010,06,18,12,07,19.20
2010,06,18,12,08,19.30
2010,06,18,12,09,19.30
2010,06,18,12,10,19.30
2010,06,18,12,11,19.30
2010,06,18,12,12,19.30
2010,06,18,12,13,19.40
2010,06,18,12,14,19.40
2010,06,18,12,15,19.30
2010,06,18,12,16,19.20
2010,06,18,12,17,19.10
2010,06,18,12,18,19.10
2010,06,18,12,19,19.10
2010,06,18,12,20,19.10
2010,06,18,12,21,18.90
2010,06,18,12,22,18.90
2010,06,18,12,23,18.90
2010,06,18,12,24,18.90
2010,06,18,12,25,18.90
2010,06,18,12,26,19.00
2010,06,18,12,27,19.10
2010,06,18,12,28,19.10
2010,06,18,12,29,19.10
2010,06,18,12,30,19.10
2010,06,18,12,31,19.10
2010,06,18,12,32,19.10
2010,06,18,12,33,19.10
2010,06,18,12,34,19.20
2010,06,18,12,35,19.20
2010,06,18,12,36,19.20
2010,06,18,12,37,19.10
2010,06,18,12,38,18.90
2010,06,18,12,39,18.90
2010,06,18,12,40,18.90
2010,06,18,12,41,18.90
2010,06,18,12,42,18.90
2010,06,18,12,43,18.90
2010,06,18,12,44,18.90
2010,06,18,12,45,19.10
2010,06,18,12,46,19.10
2010,06,18,12,47,19.20
2010,06,18,12,48,19.30
2010,06,18,12,49,19.40
2010,06,18,12,50,19.40
2010,06,18,12,51,19.40
2010,06,18,12,52,19.30
2010,06,18,12,53,19.20
2010,06,18,12,54,19.00
2010,06,18,12,55,18.90
2010,06,18,12,56,18.80
2010,06,18,12,57,18.70
2010,06,18,12,58,18.60
2010,06,18,12,59,18.40
2010,06,18,13,00,18.10
2010,06,18,13,01,18.00
2010,06,18,13,02,17.90
2010,06,18,13,03,17.90
2010,06,18,13,04,17.90
2010,06,18,13,05,18.00
2010,06,18,13,06,18.10
2010,06,18,13,07,18.30
2010,06,18,13,08,18.30
2010,06,18,13,09,18.40
2010,06,18,13,10,18.40
2010,06,18,13,11,18.40
2010,06,18,13,12,18.30
2010,06,18,13,13,18.30
2010,06,18,13,14,18.40
2010,06,18,13,15,18.40
2010,06,18,13,16,18.20
2010,06,18,13,17,18.20
2010,06,18,13,18,18.20
2010,06,18,13,19,18.40
2010,06,18,13,20,18.50
2010,06,18,13,21,18.70
2010,06,18,13,22,18.90
2010,06,18,13,23,19.00
2010,06,18,13,24,19.10
2010,06,18,13,25,19.20
2010,06,18,13,26,19.30
2010,06,18,13,27,19.40
2010,06,18,13,28,19.60
2010,06,18,13,29,19.70
2010,06,18,13,30,19.80
2010,06,18,13,31,19.90
2010,06,18,13,32,19.80
2010,06,18,13,33,19.80
2010,06,18,13,34,19.80
2010,06,18,13,35,19.90
2010,06,18,13,36,19.90
2010,06,18,13,37,20.00
2010,06,18,13,38,20.20
2010,06,18,13,39,20.10
2010,06,18,13,40,19.90
2010,06,18,13,41,19.80
2010,06,18,13,42,19.80
2010,06,18,13,43,19.80
2010,06,18,13,44,19.80
2010,06,18,13,45,19.90
2010,06,18,13,46,19.90
2010,06,18,13,47,20.10
2010,06,18,13,48,20.10
2010,06,18,13,49,20.20
2010,06,18,13,50,20.30
2010,06,18,13,51,20.40
2010,06,18,13,52,20.50
2010,06,18,13,53,20.50
2010,06,18,13,54,20.40
2010,06,18,13,55,20.40
2010,06,18,13,56,20.40
2010,06,18,13,57,20.40
2010,06,18,13,58,20.40
2010,06,18,13,59,20.20
2010,06,18,14,00,20.20
2010,06,18,14,01,20.20
2010,06,18,14,02,20.30
2010,06,18,14,03,20.30
2010,06,18,14,04,20.40
2010,06,18,14,05,20.40
2010,06,18,14,06,20.40
2010,06,18,14,07,20.30
2010,06,18,14,08,20.20
2010,06,18,14,09,20.20
2010,06,18,14,10,20.20
2010,06,18,14,11,20.20
2010,06,18,14,12,20.20
2010,06,18,14,13,20.10
2010,06,18,14,14,20.10
2010,06,18,14,15,20.10
2010,06,18,14,16,19.90
2010,06,18,14,17,19.90
2010,06,18,14,18,20.00
2010,06,18,14,19,20.10
2010,06,18,14,20,20.10
2010,06,18,14,21,20.20
2010,06,18,14,22,20.20
2010,06,18,14,23,20.20
2010,06,18,14,24,20.20
2010,06,18,14,25,20.30
2010,06,18,14,26,20.30
2010,06,18,14,27,20.30
2010,06,18,14,28,20.30
2010,06,18,14,29,20.30
2010,06,18,14,30,20.30
2010,06,18,14,31,20.30
2010,06,18,14,32,20.10
2010,06,18,14,33,20.00
2010,06,18,14,34,19.90
2010,06,18,14,35,19.80
2010,06,18,14,36,19.60
2010,06,18,14,37,19.60
2010,06,18,14,38,19.50
2010,06,18,14,39,19.40
2010,06,18,14,40,19.40
2010,06,18,14,41,19.40
2010,06,18,14,42,19.50
2010,06,18,14,43,19.60
2010,06,18,14,44,19.70
2010,06,18,14,45,19.90
2010,06,18,14,46,20.00
2010,06,18,14,47,20.20
2010,06,18,14,48,20.20
2010,06,18,14,49,20.30
2010,06,18,14,50,20.20
2010,06,18,14,51,20.10
2010,06,18,14,52,20.10
2010,06,18,14,53,20.10
2010,06,18,14,54,20.10
2010,06,18,14,55,20.10
2010,06,18,14,56,20.10
2010,06,18,14,57,20.20
2010,06,18,14,58,20.20
2010,06,18,14,59,20.20
2010,06,18,15,00,20.30
2010,06,18,15,01,20.40
2010,06,18,15,02,20.50
2010,06,18,15,03,20.50
2010,06,18,15,04,20.40
2010,06,18,15,05,20.30
2010,06,18,15,06,20.30
2010,06,18,15,07,20.20
2010,06,18,15,08,20.30
2010,06,18,15,09,20.30
2010,06,18,15,10,20.40
2010,06,18,15,11,20.50
2010,06,18,15,12,20.50
2010,06,18,15,13,20.50
2010,06,18,15,14,20.50
2010,06,18,15,15,20.30
2010,06,18,15,16,20.20
2010,06,18,15,17,20.10
2010,06,18,15,18,20.10
2010,06,18,15,19,20.00
2010,06,18,15,20,19.90
2010,06,18,15,21,19.90
2010,06,18,15,22,19.90
2010,06,18,15,23,19.90
2010,06,18,15,24,19.90
2010,06,18,15,25,19.90
2010,06,18,15,26,19.90
2010,06,18,15,27,19.90
2010,06,18,15,28,19.90
2010,06,18,15,29,19.90
2010,06,18,15,30,19.90
2010,06,18,15,31,20.00
2010,06,18,15,32,20.10
2010,06,18,15,33,20.10
2010,06,18,15,34,20.10
2010,06,18,15,35,20.20
2010,06,18,15,36,20.20
2010,06,18,15,37,20.20
2010,06,18,15,38,20.20
2010,06,18,15,39,20.20
2010,06,18,15,40,20.30
2010,06,18,15,41,20.40
2010,06,18,15,42,20.40
2010,06,18,15,43,20.50
2010,06,18,15,44,20.50
2010,06,18,15,45,20.50
2010,06,18,15,46,20.50
2010,06,18,15,47,20.40
2010,06,18,15,48,20.30
2010,06,18,15,49,20.20
2010,06,18,15,50,20.20
2010,06,18,15,51,20.20
2010,06,18,15,52,20.20
2010,06,18,15,53,20.30
2010,06,18,15,54,20.40
2010,06,18,15,55,20.40
2010,06,18,15,56,20.50
2010,06,18,15,57,20.50
2010,06,18,15,58,20.40
2010,06,18,15,59,20.40
2010,06,18,16,00,20.40
2010,06,18,16,01,20.30
2010,06,18,16,02,20.30
2010,06,18,16,03,20.40
2010,06,18,16,04,20.40
2010,06,18,16,05,20.40
2010,06,18,16,06,20.50
2010,06,18,16,07,20.50
2010,06,18,16,08,20.60
2010,06,18,16,09,20.60
2010,06,18,16,10,20.60
2010,06,18,16,11,20.60
2010,06,18,16,12,20.60
2010,06,18,16,13,20.60
2010,06,18,16,14,20.50
2010,06,18,16,15,20.50
2010,06,18,16,16,20.40
2010,06,18,16,17,20.40
2010,06,18,16,18,20.40
2010,06,18,16,19,20.50
2010,06,18,16,20,20.50
2010,06,18,16,21,20.50
2010,06,18,16,22,20.50
2010,06,18,16,23,20.40
2010,06,18,16,24,20.40
2010,06,18,16,25,20.30
2010,06,18,16,26,20.20
2010,06,18,16,27,20.20
2010,06,18,16,28,20.20
2010,06,18,16,29,20.20
2010,06,18,16,30,20.20
2010,06,18,16,31,20.20
2010,06,18,16,32,20.20
2010,06,18,16,33,20.20
2010,06,18,16,34,20.10
2010,06,18,16,35,20.20
2010,06,18,16,36,20.10
2010,06,18,16,37,20.10
2010,06,18,16,38,20.10
2010,06,18,16,39,20.10
2010,06,18,16,40,20.10
2010,06,18,16,41,20.10
2010,06,18,16,42,20.00
2010,06,18,16,43,19.90
2010,06,18,16,44,19.90
2010,06,18,16,45,19.90
2010,06,18,16,46,19.90
2010,06,18,16,47,19.90
2010,06,18,16,48,19.90
2010,06,18,16,49,19.90
2010,06,18,16,50,19.90
2010,06,18,16,51,19.90
2010,06,18,16,52,19.90
2010,06,18,16,53,19.90
2010,06,18,16,54,19.90
2010,06,18,16,55,19.90
2010,06,18,16,56,20.00
2010,06,18,16,57,20.10
2010,06,18,16,58,20.10
2010,06,18,16,59,20.10
2010,06,18,17,00,20.00
2010,06,18,17,01,20.00
2010,06,18,17,02,20.10
2010,06,18,17,03,20.00
2010,06,18,17,04,19.90
2010,06,18,17,05,19.90
2010,06,18,17,06,19.90
2010,06,18,17,07,19.90
2010,06,18,17,08,19.90
2010,06,18,17,09,19.90
2010,06,18,17,10,19.90
2010,06,18,17,11,20.00
2010,06,18,17,12,20.10
2010,06,18,17,13,20.10
2010,06,18,17,14,20.00
2010,06,18,17,15,19.90
2010,06,18,17,16,19.90
2010,06,18,17,17,19.90
2010,06,18,17,18,19.90
2010,06,18,17,19,19.80
2010,06,18,17,20,19.80
2010,06,18,17,21,19.80
2010,06,18,17,22,19.80
2010,06,18,17,23,19.80
2010,06,18,17,24,19.80
2010,06,18,17,25,19.80
2010,06,18,17,26,19.80
2010,06,18,17,27,19.80
2010,06,18,17,28,19.70
2010,06,18,17,29,19.70
2010,06,18,17,30,19.70
2010,06,18,17,31,19.70
2010,06,18,17,32,19.70
2010,06,18,17,33,19.80
2010,06,18,17,34,19.90
2010,06,18,17,35,19.90
2010,06,18,17,36,19.90
2010,06,18,17,37,20.00
2010,06,18,17,38,20.10
2010,06,18,17,39,20.20
2010,06,18,17,40,20.20
2010,06,18,17,41,20.30
2010,06,18,17,42,20.30
2010,06,18,17,43,20.40
2010,06,18,17,44,20.40
2010,06,18,17,45,20.40
2010,06,18,17,46,20.40
2010,06,18,17,47,20.40
2010,06,18,17,48,20.40
2010,06,18,17,49,20.40
2010,06,18,17,50,20.40
2010,06,18,17,51,20.40
2010,06,18,17,52,20.40
2010,06,18,17,53,20.50
2010,06,18,17,54,20.50
2010,06,18,17,55,20.50
2010,06,18,17,56,20.60
2010,06,18,17,57,20.60
2010,06,18,17,58,20.60
2010,06,18,17,59,20.60
2010,06,18,18,00,20.60
2010,06,18,18,01,20.60
2010,06,18,18,02,20.60
2010,06,18,18,03,20.60
2010,06,18,18,04,20.60
2010,06,18,18,05,20.70
2010,06,18,18,06,20.70
2010,06,18,18,07,20.70
2010,06,18,18,08,20.70
2010,06,18,18,09,20.70
2010,06,18,18,10,20.80
2010,06,18,18,11,20.80
2010,06,18,18,12,20.80
2010,06,18,18,13,20.80
2010,06,18,18,14,20.80
2010,06,18,18,15,20.80
2010,06,18,18,16,20.90
2010,06,18,18,17,20.90
2010,06,18,18,18,20.80
2010,06,18,18,19,20.80
2010,06,18,18,20,20.80
2010,06,18,18,21,20.80
2010,06,18,18,22,20.80
2010,06,18,18,23,20.80
2010,06,18,18,24,20.90
2010,06,18,18,25,20.90
2010,06,18,18,26,21.00
2010,06,18,18,27,21.00
2010,06,18,18,28,21.00
2010,06,18,18,29,21.10
2010,06,18,18,30,21.10
2010,06,18,18,31,21.10
2010,06,18,18,32,21.20
2010,06,18,18,33,21.20
2010,06,18,18,34,21.10
2010,06,18,18,35,21.00
2010,06,18,18,36,20.80
2010,06,18,18,37,20.70
2010,06,18,18,38,20.50
2010,06,18,18,39,20.40
2010,06,18,18,40,20.30
2010,06,18,18,41,20.20
2010,06,18,18,42,20.20
2010,06,18,18,43,20.20
2010,06,18,18,44,20.20
2010,06,18,18,45,20.10
2010,06,18,18,46,20.00
2010,06,18,18,47,19.90
2010,06,18,18,48,19.90
2010,06,18,18,49,19.90
2010,06,18,18,50,19.90
2010,06,18,18,51,19.90
2010,06,18,18,52,19.90
2010,06,18,18,53,19.90
2010,06,18,18,54,20.00
2010,06,18,18,55,20.10
2010,06,18,18,56,20.10
2010,06,18,18,57,20.10
2010,06,18,18,58,20.10
2010,06,18,18,59,20.10
2010,06,18,19,00,20.10
2010,06,18,19,01,20.10
2010,06,18,19,02,20.10
2010,06,18,19,03,20.10
2010,06,18,19,04,20.10
2010,06,18,19,05,20.00
2010,06,18,19,06,19.80
2010,06,18,19,07,19.60
2010,06,18,19,08,19.40
2010,06,18,19,09,19.20
2010,06,18,19,10,19.10
2010,06,18,19,11,19.10
2010,06,18,19,12,19.00
2010,06,18,19,13,18.90
2010,06,18,19,14,18.80
2010,06,18,19,15,18.70
2010,06,18,19,16,18.50
2010,06,18,19,17,18.50
2010,06,18,19,18,18.40
2010,06,18,19,19,18.30
2010,06,18,19,20,18.30
2010,06,18,19,21,18.20
2010,06,18,19,22,18.20
2010,06,18,19,23,18.20
2010,06,18,19,24,18.20
2010,06,18,19,25,18.20
2010,06,18,19,26,18.20
2010,06,18,19,27,18.20
2010,06,18,19,28,18.20
2010,06,18,19,29,18.20
2010,06,18,19,30,18.20
2010,06,18,19,31,18.20
2010,06,18,19,32,18.20
2010,06,18,19,33,18.20
2010,06,18,19,34,18.20
2010,06,18,19,35,18.20
2010,06,18,19,36,18.20
2010,06,18,19,37,18.20
2010,06,18,19,38,18.20
2010,06,18,19,39,18.30
2010,06,18,19,40,18.30
2010,06,18,19,41,18.30
2010,06,18,19,42,18.40
2010,06,18,19,43,18.40
2010,06,18,19,44,18.40
2010,06,18,19,45,18.40
2010,06,18,19,46,18.40
2010,06,18,19,47,18.40
2010,06,18,19,48,18.40
2010,06,18,19,49,18.40
2010,06,18,19,50,18.40
2010,06,18,19,51,18.30
2010,06,18,19,52,18.30
2010,06,18,19,53,18.30
2010,06,18,19,54,18.30
2010,06,18,19,55,18.20
2010,06,18,19,56,18.20
2010,06,18,19,57,18.20
2010,06,18,19,58,18.20
2010,06,18,19,59,18.20
2010,06,18,20,00,18.20
2010,06,18,20,01,18.20
2010,06,18,20,02,18.20
2010,06,18,20,03,18.20
2010,06,18,20,04,18.20
2010,06,18,20,05,18.20
2010,06,18,20,06,18.20
2010,06,18,20,07,18.20
2010,06,18,20,08,18.20
2010,06,18,20,09,18.20
2010,06,18,20,10,18.20
2010,06,18,20,11,18.10
2010,06,18,20,12,18.10
2010,06,18,20,13,18.10
2010,06,18,20,14,18.00
2010,06,18,20,15,17.90
2010,06,18,20,16,17.90
2010,06,18,20,17,17.90
2010,06,18,20,18,17.90
2010,06,18,20,19,17.90
2010,06,18,20,20,17.90
2010,06,18,20,21,17.90
2010,06,18,20,22,17.90
2010,06,18,20,23,17.90
2010,06,18,20,24,17.80
2010,06,18,20,25,17.80
2010,06,18,20,26,17.80
2010,06,18,20,27,17.80
2010,06,18,20,28,17.70
2010,06,18,20,29,17.70
2010,06,18,20,30,17.60
2010,06,18,20,31,17.60
2010,06,18,20,32,17.50
2010,06,18,20,33,17.50
2010,06,18,20,34,17.40
2010,06,18,20,35,17.40
2010,06,18,20,36,17.40
2010,06,18,20,37,17.30
2010,06,18,20,38,17.30
2010,06,18,20,39,17.30
2010,06,18,20,40,17.30
2010,06,18,20,41,17.20
2010,06,18,20,42,17.20
2010,06,18,20,43,17.10
2010,06,18,20,44,17.10
2010,06,18,20,45,17.00
2010,06,18,20,46,16.90
2010,06,18,20,47,16.90
2010,06,18,20,48,16.80
2010,06,18,20,49,16.80
2010,06,18,20,50,16.70
2010,06,18,20,51,16.70
2010,06,18,20,52,16.70
2010,06,18,20,53,16.60
2010,06,18,20,54,16.50
2010,06,18,20,55,16.40
2010,06,18,20,56,16.40
2010,06,18,20,57,16.30
2010,06,18,20,58,16.20
2010,06,18,20,59,16.10
2010,06,18,21,00,16.10
2010,06,18,21,01,16.10
2010,06,18,21,02,16.00
2010,06,18,21,03,15.90
2010,06,18,21,04,15.80
2010,06,18,21,05,15.80
2010,06,18,21,06,15.80
2010,06,18,21,07,15.70
2010,06,18,21,08,15.60
2010,06,18,21,09,15.60
2010,06,18,21,10,15.50
2010,06,18,21,11,15.50
2010,06,18,21,12,15.40
2010,06,18,21,13,15.30
2010,06,18,21,14,15.30
2010,06,18,21,15,15.30
2010,06,18,21,16,15.30
2010,06,18,21,17,15.20
2010,06,18,21,18,15.20
2010,06,18,21,19,15.10
2010,06,18,21,20,15.10
2010,06,18,21,21,15.10
2010,06,18,21,22,15.00
2010,06,18,21,23,15.00
2010,06,18,21,24,14.90
2010,06,18,21,25,14.90
2010,06,18,21,26,14.80
2010,06,18,21,27,14.80
2010,06,18,21,28,14.70
2010,06,18,21,29,14.70
2010,06,18,21,30,14.60
2010,06,18,21,31,14.60
2010,06,18,21,32,14.50
2010,06,18,21,33,14.50
2010,06,18,21,34,14.40
2010,06,18,21,35,14.40
2010,06,18,21,36,14.30
2010,06,18,21,37,14.30
2010,06,18,21,38,14.20
2010,06,18,21,39,14.20
2010,06,18,21,40,14.10
2010,06,18,21,41,14.00
2010,06,18,21,42,14.00
2010,06,18,21,43,13.90
2010,06,18,21,44,13.80
2010,06,18,21,45,13.70
2010,06,18,21,46,13.70
2010,06,18,21,47,13.70
2010,06,18,21,48,13.70
2010,06,18,21,49,13.60
2010,06,18,21,50,13.60
2010,06,18,21,51,13.60
2010,06,18,21,52,13.60
2010,06,18,21,53,13.50
2010,06,18,21,54,13.50
2010,06,18,21,55,13.50
2010,06,18,21,56,13.50
2010,06,18,21,57,13.50
2010,06,18,21,58,13.40
2010,06,18,21,59,13.30
2010,06,18,22,00,13.30
2010,06,18,22,01,13.20
2010,06,18,22,02,13.20
2010,06,18,22,03,13.10
2010,06,18,22,04,13.10
2010,06,18,22,05,13.10
2010,06,18,22,06,13.10
2010,06,18,22,07,13.00
2010,06,18,22,08,13.00
2010,06,18,22,09,13.00
2010,06,18,22,10,13.00
2010,06,18,22,11,13.00
2010,06,18,22,12,13.00
2010,06,18,22,13,12.90
2010,06,18,22,14,12.90
2010,06,18,22,15,12.90
2010,06,18,22,16,12.90
2010,06,18,22,17,12.90
2010,06,18,22,18,12.90
2010,06,18,22,19,12.90
2010,06,18,22,20,12.90
2010,06,18,22,21,12.80
2010,06,18,22,22,12.80
2010,06,18,22,23,12.80
2010,06,18,22,24,12.80
2010,06,18,22,25,12.80
2010,06,18,22,26,12.80
2010,06,18,22,27,12.80
2010,06,18,22,28,12.80
2010,06,18,22,29,12.80
2010,06,18,22,30,12.70
2010,06,18,22,31,12.70
2010,06,18,22,32,12.60
2010,06,18,22,33,12.60
2010,06,18,22,34,12.60
2010,06,18,22,35,12.50
2010,06,18,22,36,12.50
2010,06,18,22,37,12.40
2010,06,18,22,38,12.40
2010,06,18,22,39,12.40
2010,06,18,22,40,12.30
2010,06,18,22,41,12.30
2010,06,18,22,42,12.30
2010,06,18,22,43,12.30
2010,06,18,22,44,12.30
2010,06,18,22,45,12.30
2010,06,18,22,46,12.20
2010,06,18,22,47,12.20
2010,06,18,22,48,12.20
2010,06,18,22,49,12.20
2010,06,18,22,50,12.10
2010,06,18,22,51,12.10
2010,06,18,22,52,12.10
2010,06,18,22,53,12.00
2010,06,18,22,54,12.00
2010,06,18,22,55,12.00
2010,06,18,22,56,12.00
2010,06,18,22,57,11.90
2010,06,18,22,58,11.90
2010,06,18,22,59,11.90
2010,06,18,23,00,11.80
2010,06,18,23,01,11.80
2010,06,18,23,02,11.80
2010,06,18,23,03,11.80
2010,06,18,23,04,11.80
2010,06,18,23,05,11.80
2010,06,18,23,06,11.80
2010,06,18,23,07,11.80
2010,06,18,23,08,11.80
2010,06,18,23,09,11.80